Location: Dal�� Lhota
(48.7500°N, 14.0167°E)
Time: 23:07:14
(UTC+00:00)

Cosmos 909 Rocket - Pass Details

Date: 24 September 2020
Orbit: 991 x 2088 km, 65.9° (Epoch: 25 October)

Event Time Altitude Azimuth Distance (km) Brightness Sun altitude
Rises 19:50:26 0° 322° (NW) 3,919 8.3 -27.8°
Reaches altitude 10° 19:53:11 10° 322° (NW) 2,875 7.3 -28.2°
Maximum altitude 19:59:43 89° 234° (SW) 1,000 3.9 -29.1°
Enters shadow 19:59:58 83° 154° (SSE) 1,005 3.9 -29.1°
